Tracking 30994 objects as of 8-Jul-2025
HD Live streaming from Space Station
objects crossing your sky now

DELTA 1 DEB

Track DELTA 1 DEB now!
10-day predictions


NORAD ID: 42586
Int'l Code: 1973-086JA
Perigee: 1,507.7 km
Apogee: 1,558.4 km
Inclination: 102.4 °
Period: 116.6 minutes
Semi major axis: 7904 km
RCS: Unknown
Launch date: November 6, 1973
Source: United States (US)
Launch site: AIR FORCE WESTERN TEST RANGE (AFWTR)

Note: This is SATELLITE DEBRIS
Your satellite tracking list
Your tracking list is empty




NASA's NSSDC Master Catalog

Two Line Element Set (TLE):
1 42586U 73086JA  25187.90191385  .00000013  00000-0  47007-3 0  9993
2 42586 102.3974 203.0806 0032109  65.1132  52.8515 12.35454984524232
Source of the keplerian elements: AFSPC